EHI
0 0 0 0 0 0 0 0 0 0 0 0 0 2 4 3 1 0 0 3 10 14 11 17 39 62 73 74 70 66 64 64 63 58 45 33 22 13 6 1 0 0 0 0 0 0 0 0 0
0 0 0 0 0 0 0 0 0 0 0 0 0 1 3 3 1 0 0 5 15 18 13 17 38 61 72 75 70 61 54 50 46 41 33 25 18 10 4 1 0 0 0 0 0 0 0 0 0
0 0 0 0 0 0 0 0 0 0 0 0 0 1 2 2 0 0 2 12 23 23 15 20 39 59 69 73 68 58 47 36 29 23 18 15 10 5 2 1 0 0 0 0 0 0 0 0 0
0 0 0 0 0 0 0 0 1 0 0 0 1 2 3 1 0 3 8 21 32 28 19 25 43 56 63 66 63 56 44 32 21 13 8 6 4 2 1 0 0 0 0 0 0 0 0 0 0
0 0 0 0 0 0 0 0 1 1 0 0 2 3 3 1 1 5 12 23 34 32 24 28 42 52 54 56 56 51 41 30 19 10 4 1 0 0 0 0 0 0 0 0 0 0 0 0 0
0 0 0 0 0 0 0 1 2 2 1 1 3 5 3 1 2 5 9 16 26 31 28 28 35 42 44 46 47 45 38 29 20 12 5 1 0 0 0 0 0 0 0 0 0 0 0 0 0
0 0 0 0 0 0 0 2 3 3 1 1 4 6 4 1 1 3 5 9 17 24 26 26 26 29 32 34 36 35 32 27 19 11 5 1 0 0 0 0 0 0 0 0 0 0 0 0 0
0 0 0 0 0 0 0 1 1 1 1 1 3 4 5 6 6 7 7 8 11 15 17 20 21 20 20 21 24 25 23 20 14 7 3 1 0 0 0 0 0 0 0 0 0 0 0 0 1
0 0 0 0 0 0 1 2 1 2 5 5 8 15 21 20 17 14 10 8 7 7 8 12 16 16 13 13 14 16 15 12 10 6 3 1 1 0 0 0 0 0 0 0 0 0 0 1 2
0 0 0 0 0 1 3 4 3 7 13 15 22 39 48 39 25 17 12 7 4 4 4 5 9 10 9 9 10 10 10 10 10 9 7 6 3 1 0 1 1 1 1 1 0 0 1 2 4
0 0 0 0 0 1 3 6 12 16 19 24 37 55 62 49 30 19 12 7 5 6 5 3 4 5 5 6 6 7 8 9 10 10 9 8 5 2 2 3 3 3 2 2 1 1 2 4 6
0 0 0 0 1 3 8 15 25 29 26 30 47 61 62 51 37 25 17 13 13 12 8 3 2 2 2 3 3 4 5 6 7 6 5 5 3 2 3 4 4 3 2 2 2 2 2 3 5
0 0 0 1 4 12 25 33 36 37 34 39 53 61 59 52 43 35 29 28 27 22 13 5 3 3 2 2 1 2 3 4 4 3 2 1 2 2 3 3 2 2 1 1 1 2 1 1 1
0 0 0 1 5 18 36 45 41 34 36 45 52 53 51 47 44 42 41 39 36 28 17 10 8 6 5 4 3 2 2 3 3 2 1 1 3 2 2 2 1 0 0 0 0 0 0 0 0
0 0 0 1 3 12 29 39 34 25 31 43 45 43 41 39 38 38 36 34 29 22 16 15 13 9 7 6 4 2 1 1 1 1 1 2 3 3 2 1 1 0 0 0 0 0 1 1 1
0 0 0 0 1 5 15 23 19 16 26 35 35 31 29 28 28 26 22 20 17 13 13 14 13 9 6 4 2 1 1 0 0 0 1 1 2 2 2 2 2 1 1 1 0 1 2 2 2
0 0 0 0 0 3 9 13 10 12 20 24 22 18 16 16 16 14 11 9 7 7 7 7 6 4 2 1 0 0 0 0 0 0 0 0 0 1 2 3 3 2 2 1 0 1 2 3 3
0 0 0 0 0 3 10 12 10 10 12 12 11 8 7 6 5 4 4 3 2 2 2 2 1 0 0 0 0 0 0 0 0 0 0 0 0 0 1 2 2 1 1 1 0 0 1 1 2
0 0 0 0 1 4 10 12 9 7 4 3 3 2 2 1 1 0 1 1 0 0 0 0 0 0 0 0 0 0 0 0 0 0 0 0 0 0 0 1 1 0 0 0 0 0 0 0 1
0 0 1 2 2 5 9 9 6 3 1 0 0 0 0 0 0 0 0 0 0 0 0 0 0 0 0 0 0 0 0 0 0 0 0 0 0 0 0 0 0 0 0 0 0 0 0 0 0
0 0 1 2 3 4 6 6 4 2 1 0 0 0 0 0 0 0 0 0 0 0 0 0 0 0 0 0 0 0 0 0 0 0 0 0 0 0 0 0 0 0 0 0 0 0 0 0 0
0 0 0 1 1 2 2 2 1 1 0 0 0 0 0 0 0 0 0 0 0 0 0 0 0 0 0 0 0 0 0 0 0 0 0 0 0 0 0 0 0 0 0 0 0 0 0 0 0
0 0 0 0 0 0 0 0 0 0 0 0 0 0 0 0 0 0 0 0 0 0 0 0 0 0 0 0 0 0 0 0 0 0 0 0 0 0 0 0 0 0 0 0 0 0 0 0 0
0 0 0 0 0 0 0 0 0 0 0 0 0 0 0 0 0 0 0 0 0 0 0 0 0 0 0 0 0 0 0 0 0 0 0 0 0 0 0 0 0 0 0 0 0 0 0 0 0
0 0 0 0 0 0 0 0 0 0 0 0 0 0 0 0 0 0 0 0 0 0 0 0 0 0 0 0 0 0 0 0 0 0 0 0 0 0 0 0 0 0 0 0 0 0 0 0 0
0 0 0 0 0 0 0 0 0 0 0 0 0 0 0 0 0 0 0 0 0 0 0 0 0 0 0 0 0 0 0 0 0 0 0 0 0 0 0 0 0 0 0 0 0 0 0 0 0
0 0 0 0 0 0 0 0 0 0 0 0 0 0 0 0 0 0 0 0 0 0 0 0 0 0 0 0 0 0 0 0 0 0 0 0 0 0 0 0 0 0 0 0 0 0 0 0 0
0 0 0 0 0 0 0 0 0 0 0 0 0 0 0 0 0 0 0 0 0 0 0 0 0 0 0 0 0 0 0 0 0 0 0 0 0 0 0 0 0 0 0 0 0 0 0 0 0
0 0 0 0 0 0 0 0 0 0 0 0 0 0 0 0 0 0 0 0 0 0 0 0 0 0 0 0 0 0 0 0 0 0 0 0 0 0 0 0 0 0 0 0 0 0 0 0 0
0 0 0 0 0 0 0 0 0 0 0 0 0 0 0 0 0 0 0 0 0 0 0 0 0 0 0 0 0 0 0 0 0 0 0 0 0 0 0 0 0 0 0 0 0 0 0 0 0
Wind_Speed
10 6 3 2 3 2 5 5 4 4 2 2 4 6 7 5 2 2 3 9 13 13 10 14 16 17 17 17 17 17 17 17 16 16 15 15 14 14 13 12 11 10 10 9 8 8 8 8 8
6 4 2 3 2 2 5 4 3 3 1 2 4 5 6 5 4 6 5 9 14 12 9 10 16 16 17 17 17 17 16 16 15 15 14 14 13 13 12 11 11 10 9 9 8 7 7 7 7
6 2 3 3 0 3 6 4 4 3 1 1 3 5 5 3 5 5 6 13 12 10 8 11 18 16 16 16 16 16 15 15 14 14 13 13 12 12 11 11 10 9 9 8 8 7 7 7 7
3 2 3 2 4 5 6 8 6 3 1 4 4 5 5 4 2 7 13 15 13 10 7 11 17 16 15 15 15 15 14 14 13 13 12 12 11 11 10 9 9 9 8 8 7 7 7 6 6
3 3 3 2 6 7 7 7 4 0 2 4 5 5 4 5 8 13 14 15 14 10 6 9 16 15 14 14 14 13 13 13 12 12 11 11 11 10 9 9 8 8 8 7 7 7 6 6 6
4 4 3 3 6 7 5 5 4 5 3 4 5 4 3 4 8 10 11 12 11 10 7 8 14 15 14 13 13 13 12 12 11 11 11 11 10 10 9 9 8 8 8 8 7 7 7 7 6
4 4 1 3 5 6 5 6 5 4 4 3 4 5 2 4 5 9 9 10 9 7 6 5 6 9 12 12 12 12 11 11 11 11 11 10 10 10 10 9 9 9 9 8 8 8 8 8 7
4 4 1 3 4 5 6 6 3 4 3 4 4 6 5 5 9 10 10 9 8 6 5 4 4 4 4 6 10 11 11 10 10 10 10 10 10 10 10 9 9 10 10 10 10 10 10 10 9
4 4 2 4 3 5 4 5 4 3 4 5 5 2 7 14 12 11 10 8 7 7 4 4 4 4 3 3 6 8 9 9 8 8 10 9 4 4 5 8 10 11 11 11 11 11 11 11 10
4 3 7 6 4 3 3 3 4 5 6 6 6 8 14 13 11 10 10 9 9 8 6 3 3 3 2 2 2 1 2 2 3 2 3 2 2 3 5 6 11 12 12 12 12 12 11 9 5
5 7 6 5 5 3 1 2 5 4 6 4 4 9 11 11 8 6 6 6 6 6 6 4 3 3 2 1 1 1 1 1 2 3 3 2 2 2 3 2 4 5 7 5 6 7 5 5 4
4 7 5 5 2 1 1 3 6 7 5 5 7 8 9 8 6 5 5 5 5 5 4 5 4 3 2 2 1 1 1 2 2 3 3 2 2 2 2 2 2 2 2 3 3 3 5 6 6
4 4 2 2 2 3 7 7 7 7 6 9 11 10 8 7 5 4 4 5 5 5 4 4 4 3 2 1 1 0 1 2 2 2 2 3 3 3 2 2 2 2 2 3 3 3 4 5 6
3 1 2 4 3 4 9 6 6 5 5 9 11 9 7 6 5 5 5 5 5 5 4 4 4 4 3 2 1 0 0 0 0 1 1 3 2 2 2 2 2 2 2 2 2 3 3 3 4
1 1 4 5 4 2 7 9 5 3 5 8 9 8 8 6 6 5 5 5 5 4 4 4 5 4 4 3 2 1 1 1 1 0 1 1 1 1 1 1 2 2 2 2 1 2 2 3 4
3 3 3 4 4 2 7 5 1 1 6 7 6 6 6 5 4 4 5 5 5 5 4 3 4 4 3 2 2 1 1 1 0 0 0 1 0 1 1 1 2 1 1 1 1 1 2 3 4
4 2 1 3 4 2 5 5 2 1 4 6 5 4 5 4 3 2 3 4 4 4 5 4 4 4 4 3 2 2 1 1 1 1 1 1 1 0 0 1 2 1 1 1 2 1 2 3 4
2 1 0 1 3 4 5 4 3 1 3 4 4 3 3 3 3 2 2 3 4 4 4 4 4 4 3 2 2 2 2 2 1 1 1 1 1 1 0 1 1 1 1 1 2 2 2 3 4
3 3 1 0 1 4 4 4 2 2 2 2 2 3 3 3 3 3 3 3 3 3 3 3 3 3 2 1 1 1 1 1 1 1 2 2 2 2 1 1 1 1 1 2 2 2 2 2 2
3 3 2 2 2 3 3 1 1 2 2 3 4 5 5 4 3 4 4 3 4 3 4 3 3 2 2 1 1 1 1 0 0 1 2 2 2 2 2 1 2 2 2 3 3 2 1 2 1
2 4 4 4 3 5 2 1 1 1 1 2 3 3 4 6 6 6 5 5 5 4 4 4 3 2 2 2 2 2 2 2 2 2 2 2 3 3 2 2 2 2 2 3 3 3 3 2 2
1 1 5 5 4 2 2 1 3 2 3 3 3 3 5 6 6 6 6 6 6 5 4 3 3 2 2 2 2 2 1 1 2 1 2 4 3 3 3 3 3 3 2 3 3 3 3 3 3
3 5 7 6 4 3 4 2 6 1 3 5 5 5 5 6 7 7 7 6 4 4 4 4 3 3 2 1 2 1 1 2 2 2 3 4 4 4 4 3 3 3 3 3 4 3 3 3 3
8 7 7 6 5 3 2 1 6 3 5 4 4 4 5 5 5 5 4 3 3 2 3 3 3 2 2 1 1 2 3 3 3 4 4 4 3 4 4 4 3 3 3 4 4 3 4 4 4
5 6 5 5 4 3 1 1 8 6 6 6 5 5 5 4 4 4 4 3 3 3 2 2 2 2 1 1 2 2 3 3 4 5 4 4 3 3 5 4 3 4 4 4 4 4 4 4 5
4 7 6 4 3 3 1 4 8 5 5 5 5 4 3 2 2 3 4 4 3 3 2 2 2 1 1 1 3 3 3 3 3 5 5 5 4 5 6 5 5 5 5 5 4 4 5 4 5
6 3 5 7 2 1 3 6 8 3 3 3 4 3 3 3 3 4 3 3 3 2 2 2 2 2 2 2 3 3 4 4 5 5 4 4 5 5 6 6 6 6 6 6 5 4 5 5 5
5 8 5 6 4 1 4 4 5 6 6 5 4 4 4 3 3 3 2 2 1 2 1 1 2 2 3 3 3 3 4 5 5 5 6 6 6 6 6 7 6 6 6 6 5 5 6 6 6
2 4 6 5 5 6 2 8 8 8 7 7 7 6 6 6 5 3 2 1 1 1 1 1 2 3 3 4 4 4 5 5 5 5 6 6 6 6 7 7 7 7 7 7 6 7 7 7 7
1 4 7 5 3 4 4 9 5 7 7 7 6 5 5 5 3 2 1 1 1 2 2 3 3 4 5 4 4 5 5 5 5 6 7 6 7 7 7 7 8 8 8 7 7 8 8 8 8
Wind_Direction
137 129 113 79 47 18 271 258 249 302 336 21 65 82 90 83 116 145 115 132 132 141 149 151 149 144 140 136 133 132 132 132 133 135 137 141 144 146 148 150 151 151 148 143 136 131 128 126 125
132 133 81 69 68 338 284 257 268 278 226 131 73 76 74 70 75 104 124 135 136 140 142 148 149 146 143 140 138 137 137 137 139 141 143 145 148 150 152 154 155 155 153 148 145 142 139 136 134
145 132 96 80 142 235 277 288 296 308 298 39 68 55 69 87 121 131 141 137 132 135 137 154 152 150 148 144 142 140 140 142 144 147 149 151 153 156 158 160 161 161 158 156 155 153 149 147 146
132 66 65 66 265 245 250 278 289 289 3 51 84 63 55 31 119 135 135 137 134 132 138 157 154 154 152 150 147 146 146 148 151 155 157 159 161 164 166 168 170 168 167 166 165 164 162 161 160
76 83 53 340 274 263 260 276 296 308 39 49 80 81 42 17 98 125 135 140 139 134 139 155 155 156 156 155 154 153 154 157 160 164 167 169 172 175 176 178 182 183 179 179 178 178 176 178 179
64 67 67 299 285 285 297 329 17 45 56 72 78 82 49 89 116 128 133 136 139 138 137 149 157 159 161 162 162 162 164 167 171 175 179 183 185 187 189 191 196 200 197 196 194 192 192 194 196
108 105 181 264 288 305 334 357 28 34 46 55 90 92 91 123 120 121 124 128 129 127 127 134 150 160 165 169 171 172 175 177 181 186 190 194 198 199 200 203 208 212 210 208 208 207 206 207 210
131 105 316 279 278 293 323 358 20 30 32 52 76 128 163 155 126 116 118 124 127 119 117 118 122 130 148 168 179 181 184 186 190 195 199 205 209 209 211 210 216 221 219 216 219 220 219 218 218
109 77 260 247 246 277 325 4 359 21 48 41 32 87 135 130 127 124 126 132 143 144 125 120 121 118 126 157 190 188 193 198 202 207 212 213 217 220 225 225 225 231 230 228 230 230 230 229 228
112 160 231 227 218 251 325 6 357 42 44 39 37 69 112 127 135 141 147 155 164 165 157 135 126 121 127 180 180 178 196 198 200 203 230 219 207 226 234 242 242 242 241 240 240 240 238 237 229
172 206 240 254 241 242 294 21 23 72 49 36 98 117 127 135 140 148 153 160 165 158 160 151 135 129 148 187 176 190 205 204 202 204 212 215 220 238 247 249 263 264 261 255 253 251 240 228 221
201 248 251 281 279 210 140 96 60 50 58 71 92 108 117 123 134 146 150 149 143 144 158 153 148 155 187 222 221 202 215 220 219 215 209 203 215 225 235 241 251 256 261 258 252 244 244 238 234
223 268 287 305 7 90 86 79 88 57 62 86 92 87 92 97 87 86 103 117 126 135 138 140 146 159 176 214 276 242 252 253 259 246 228 218 214 219 219 238 244 253 257 254 254 253 251 249 246
232 230 357 0 45 70 92 71 73 53 62 86 85 81 81 85 85 80 81 98 107 112 115 117 120 130 128 127 118 185 211 154 342 296 257 233 224 219 216 235 244 250 254 252 248 256 256 255 252
267 35 21 20 35 98 92 55 50 61 80 82 84 85 79 71 72 77 89 96 104 106 106 111 117 110 113 121 134 124 52 63 95 267 276 251 211 194 197 221 243 250 254 262 271 276 273 270 263
29 43 26 344 15 61 94 105 64 69 100 94 93 93 87 71 69 81 99 107 111 115 113 116 120 115 114 115 108 95 78 65 56 56 6 360 318 187 184 223 247 258 268 268 262 260 273 269 267
29 42 346 323 3 63 101 141 194 140 119 117 112 109 107 96 80 93 117 124 131 130 128 125 123 129 129 122 118 106 84 60 29 47 46 19 2 280 193 248 263 273 278 276 277 251 244 266 272
242 195 221 304 2 66 98 131 160 167 139 133 136 138 129 142 168 179 155 144 143 140 137 136 135 138 128 112 96 71 60 44 41 41 35 37 14 11 10 278 290 300 288 284 279 273 255 257 271
165 159 158 74 40 70 98 128 165 168 157 169 182 177 186 195 191 188 184 169 150 147 147 152 151 152 136 121 120 102 63 20 23 24 33 28 15 4 349 319 312 298 268 267 267 262 274 274 272
137 132 132 91 62 92 115 128 200 202 209 210 219 205 196 205 208 207 200 194 189 186 183 176 176 171 165 145 139 138 129 48 342 349 6 9 2 346 337 320 299 289 278 282 267 236 249 267 246
168 169 176 153 94 58 68 1 254 253 274 256 244 224 210 213 213 216 212 210 205 207 204 190 189 183 172 143 106 73 50 18 358 348 334 333 340 333 327 313 294 285 264 265 262 232 222 244 260
231 188 133 117 94 34 36 313 291 278 297 261 249 237 229 227 221 220 219 219 215 215 200 194 191 193 189 159 147 154 172 241 254 267 292 309 314 312 308 301 295 286 272 264 262 237 218 217 243
120 80 89 91 97 57 27 33 295 330 270 257 247 236 232 231 225 225 222 221 215 198 189 189 186 202 204 184 170 176 225 242 273 292 299 303 306 305 297 290 287 282 273 266 262 257 233 220 225
118 74 59 54 63 32 344 37 290 252 232 251 250 243 241 241 233 229 223 210 208 187 180 176 181 212 216 210 209 218 246 264 283 289 291 291 293 296 291 286 274 271 265 264 261 252 243 235 234
88 87 40 9 16 277 287 262 258 254 232 225 240 250 244 240 228 218 207 195 189 177 174 165 174 225 252 259 267 259 257 258 258 267 269 274 280 281 284 288 276 269 260 262 260 254 250 240 237
158 134 152 190 216 274 317 256 258 252 246 238 240 243 242 238 213 201 194 183 180 176 165 159 174 224 267 272 275 274 264 252 254 256 256 259 259 265 272 276 271 269 266 265 258 255 255 245 241
139 152 147 121 113 35 294 289 301 260 255 237 229 222 231 217 196 187 177 166 164 172 182 183 187 226 263 266 272 280 275 262 264 269 264 262 262 269 270 269 270 269 267 262 255 252 258 255 249
125 138 102 106 127 264 301 281 253 255 245 237 225 220 221 202 189 179 164 158 171 193 206 203 212 238 260 270 272 278 278 275 272 275 274 271 271 272 278 277 272 270 268 263 255 254 256 255 254
111 95 99 102 140 148 238 267 228 222 223 217 222 215 205 198 192 187 179 175 198 230 244 259 263 265 273 275 277 281 281 282 281 275 274 275 277 277 275 274 274 272 268 264 256 254 255 253 256
179 156 147 144 190 164 176 264 259 234 232 215 220 211 195 188 180 178 186 203 248 268 277 275 273 270 270 273 280 279 281 286 284 280 278 277 277 277 274 273 274 272 269 261 255 257 257 250 253